Starlink 32432

operational
NORAD ID: 61257 Int'l Des: 2024-175 Owner: SPXS Country: US Constellation: starlink
LEOCIRCULAR

Starlink 32432について

説明を読み込み中...

リアルタイム位置

3D地球を読み込み中...

次回通過

高度履歴

Altitude vs Time

uPlot chart will show altitude changes over time

軌道要素

1 61257U 24175Q 26035.25209469 .00001012 00000-0 46299-4 0 9991
2 61257 53.1610 349.3921 0001411 124.7298 235.3836 15.30189595 76335
Epoch: Feb 4, 2026 • Age: 14 hours

現在のステータス

高度 481.3 km
速度 7.62 km/s
衛星直下点 -18.97°S, 103.97°W
打ち上げ日 Sep 25, 2024
運用期間 1.3 years
タイプ internet

技術仕様

分類 Payload
質量 730.00 kg
乾燥質量 700.00 kg
総質量 730.00 kg
長さ 0.30 m
直径 4.10 m
スパン 29.00 m
形状 Box + pan
製造者 SPXS
バスタイプ Starlink V2M
フェーズステータス In Orbit
所有者/国 SPXS/US

大規模コンステレーション

Loading constellations...